"Time","Value","Approval","myLocation"
"2022-11-30 23:00",3.9,"Approved","OW511"
"2022-12-01 00:00",3.889,"Approved","OW511"
"2022-12-01 01:00",3.885,"Approved","OW511"
"2022-12-01 02:00",3.875,"Approved","OW511"
"2022-12-01 03:00",3.876,"Approved","OW511"
"2022-12-01 04:00",3.873,"Approved","OW511"
"2022-12-01 05:00",3.876,"Approved","OW511"
"2022-12-01 06:00",3.876,"Approved","OW511"
"2022-12-01 07:00",3.878,"Approved","OW511"
"2022-12-01 08:00",3.879,"Approved","OW511"
"2022-12-01 09:00",3.888,"Approved","OW511"
"2022-12-01 10:00",3.898,"Approved","OW511"
"2022-12-01 11:00",3.902,"Approved","OW511"
"2022-12-01 12:00",3.911,"Approved","OW511"
"2022-12-01 13:00",3.916,"Approved","OW511"
"2022-12-01 14:00",3.927,"Approved","OW511"
"2022-12-01 15:00",3.935,"Approved","OW511"
"2022-12-01 16:00",3.94,"Approved","OW511"
"2022-12-01 17:00",3.95,"Approved","OW511"
"2022-12-01 18:00",3.956,"Approved","OW511"
"2022-12-01 19:00",3.962,"Approved","OW511"
"2022-12-01 20:00",3.96,"Approved","OW511"
"2022-12-01 21:00",3.955,"Approved","OW511"
"2022-12-01 22:00",3.948,"Approved","OW511"
"2022-12-01 23:00",3.939,"Approved","OW511"
"2022-12-02 00:00",3.929,"Approved","OW511"
"2022-12-02 01:00",3.917,"Approved","OW511"
"2022-12-02 02:00",3.91,"Approved","OW511"
"2022-12-02 03:00",3.911,"Approved","OW511"
"2022-12-02 04:00",3.907,"Approved","OW511"
"2022-12-02 05:00",3.908,"Approved","OW511"
"2022-12-02 06:00",3.908,"Approved","OW511"
"2022-12-02 07:00",3.918,"Approved","OW511"
"2022-12-02 08:00",3.919,"Approved","OW511"
"2022-12-02 09:00",3.929,"Approved","OW511"
"2022-12-02 10:00",3.935,"Approved","OW511"
"2022-12-02 11:00",3.943,"Approved","OW511"
"2022-12-02 12:00",3.949,"Approved","OW511"
"2022-12-02 13:00",3.957,"Approved","OW511"
"2022-12-02 14:00",3.961,"Approved","OW511"
"2022-12-02 15:00",3.968,"Approved","OW511"
"2022-12-02 16:00",3.977,"Approved","OW511"
"2022-12-02 17:00",3.983,"Approved","OW511"
"2022-12-02 18:00",3.989,"Approved","OW511"
"2022-12-02 19:00",3.995,"Approved","OW511"
"2022-12-02 20:00",3.998,"Approved","OW511"
"2022-12-02 21:00",3.995,"Approved","OW511"
"2022-12-02 22:00",3.995,"Approved","OW511"
"2022-12-02 23:00",3.984,"Approved","OW511"
"2022-12-03 00:00",3.973,"Approved","OW511"
"2022-12-03 01:00",3.967,"Approved","OW511"
"2022-12-03 02:00",3.963,"Approved","OW511"
"2022-12-03 03:00",3.96,"Approved","OW511"
"2022-12-03 04:00",3.965,"Approved","OW511"
"2022-12-03 05:00",3.964,"Approved","OW511"
"2022-12-03 06:00",3.969,"Approved","OW511"
"2022-12-03 07:00",3.977,"Approved","OW511"
"2022-12-03 08:00",3.984,"Approved","OW511"
"2022-12-03 09:00",3.987,"Approved","OW511"
"2022-12-03 10:00",3.992,"Approved","OW511"
"2022-12-03 11:00",3.996,"Approved","OW511"
"2022-12-03 12:00",3.999,"Approved","OW511"
"2022-12-03 13:00",4.006,"Approved","OW511"
"2022-12-03 14:00",4.006,"Approved","OW511"
"2022-12-03 15:00",4.014,"Approved","OW511"
"2022-12-03 16:00",4.012,"Approved","OW511"
"2022-12-03 17:00",4.017,"Approved","OW511"
"2022-12-03 18:00",4.023,"Approved","OW511"
"2022-12-03 19:00",4.026,"Approved","OW511"
"2022-12-03 20:00",4.028,"Approved","OW511"
"2022-12-03 21:00",4.029,"Approved","OW511"
"2022-12-03 22:00",4.021,"Approved","OW511"
"2022-12-03 23:00",4.019,"Approved","OW511"
"2022-12-04 00:00",4.01,"Approved","OW511"
"2022-12-04 01:00",4.006,"Approved","OW511"
"2022-12-04 02:00",3.995,"Approved","OW511"
"2022-12-04 03:00",3.996,"Approved","OW511"
"2022-12-04 04:00",3.998,"Approved","OW511"
"2022-12-04 05:00",3.999,"Approved","OW511"
"2022-12-04 06:00",3.999,"Approved","OW511"
"2022-12-04 07:00",4.005,"Approved","OW511"
"2022-12-04 08:00",4.017,"Approved","OW511"
"2022-12-04 09:00",4.021,"Approved","OW511"
"2022-12-04 10:00",4.029,"Approved","OW511"
"2022-12-04 11:00",4.034,"Approved","OW511"
"2022-12-04 12:00",4.032,"Approved","OW511"
"2022-12-04 13:00",4.033,"Approved","OW511"
"2022-12-04 14:00",4.033,"Approved","OW511"
"2022-12-04 15:00",4.032,"Approved","OW511"
"2022-12-04 16:00",4.034,"Approved","OW511"
"2022-12-04 17:00",4.041,"Approved","OW511"
"2022-12-04 18:00",4.04,"Approved","OW511"
"2022-12-04 19:00",4.043,"Approved","OW511"
"2022-12-04 20:00",4.041,"Approved","OW511"
"2022-12-04 21:00",4.041,"Approved","OW511"
"2022-12-04 22:00",4.036,"Approved","OW511"
"2022-12-04 23:00",4.031,"Approved","OW511"
"2022-12-05 00:00",4.02,"Approved","OW511"
"2022-12-05 01:00",4.016,"Approved","OW511"
"2022-12-05 02:00",4.006,"Approved","OW511"
"2022-12-05 03:00",4.006,"Approved","OW511"
"2022-12-05 04:00",4.007,"Approved","OW511"
"2022-12-05 05:00",4.01,"Approved","OW511"
"2022-12-05 06:00",4.012,"Approved","OW511"
"2022-12-05 07:00",4.018,"Approved","OW511"
"2022-12-05 08:00",4.025,"Approved","OW511"
"2022-12-05 09:00",4.029,"Approved","OW511"
"2022-12-05 10:00",4.032,"Approved","OW511"
"2022-12-05 11:00",4.043,"Approved","OW511"
"2022-12-05 12:00",4.041,"Approved","OW511"
"2022-12-05 13:00",4.043,"Approved","OW511"
"2022-12-05 14:00",4.042,"Approved","OW511"
"2022-12-05 15:00",4.037,"Approved","OW511"
"2022-12-05 16:00",4.03,"Approved","OW511"
"2022-12-05 17:00",4.033,"Approved","OW511"
"2022-12-05 18:00",4.03,"Approved","OW511"
"2022-12-05 19:00",4.024,"Approved","OW511"
"2022-12-05 20:00",4.025,"Approved","OW511"
"2022-12-05 21:00",4.022,"Approved","OW511"
"2022-12-05 22:00",4.019,"Approved","OW511"
"2022-12-05 23:00",4.012,"Approved","OW511"
"2022-12-06 00:00",4.008,"Approved","OW511"
"2022-12-06 01:00",4,"Approved","OW511"
"2022-12-06 02:00",3.996,"Approved","OW511"
"2022-12-06 03:00",3.992,"Approved","OW511"
"2022-12-06 04:00",3.994,"Approved","OW511"
"2022-12-06 05:00",3.993,"Approved","OW511"
"2022-12-06 06:00",4.001,"Approved","OW511"
"2022-12-06 07:00",4.009,"Approved","OW511"
"2022-12-06 08:00",4.011,"Approved","OW511"
"2022-12-06 09:00",4.019,"Approved","OW511"
"2022-12-06 10:00",4.031,"Approved","OW511"
"2022-12-06 11:00",4.037,"Approved","OW511"
"2022-12-06 12:00",4.038,"Approved","OW511"
"2022-12-06 13:00",4.042,"Approved","OW511"
"2022-12-06 14:00",4.042,"Approved","OW511"
"2022-12-06 15:00",4.032,"Approved","OW511"
"2022-12-06 16:00",4.029,"Approved","OW511"
"2022-12-06 17:00",4.019,"Approved","OW511"
"2022-12-06 18:00",4.012,"Approved","OW511"
"2022-12-06 19:00",4.009,"Approved","OW511"
"2022-12-06 20:00",4.003,"Approved","OW511"
"2022-12-06 21:00",3.999,"Approved","OW511"
"2022-12-06 22:00",3.992,"Approved","OW511"
"2022-12-06 23:00",3.988,"Approved","OW511"
"2022-12-07 00:00",3.985,"Approved","OW511"
"2022-12-07 01:00",3.976,"Approved","OW511"
"2022-12-07 02:00",3.979,"Approved","OW511"
"2022-12-07 03:00",3.975,"Approved","OW511"
"2022-12-07 04:00",3.972,"Approved","OW511"
"2022-12-07 05:00",3.972,"Approved","OW511"
"2022-12-07 06:00",3.983,"Approved","OW511"
"2022-12-07 07:00",3.986,"Approved","OW511"
"2022-12-07 08:00",3.995,"Approved","OW511"
"2022-12-07 09:00",4.002,"Approved","OW511"
"2022-12-07 10:00",4.008,"Approved","OW511"
"2022-12-07 11:00",4.017,"Approved","OW511"
"2022-12-07 12:00",4.02,"Approved","OW511"
"2022-12-07 13:00",4.03,"Approved","OW511"
"2022-12-07 14:00",4.026,"Approved","OW511"
"2022-12-07 15:00",4.023,"Approved","OW511"
"2022-12-07 16:00",4.01,"Approved","OW511"
"2022-12-07 17:00",4.003,"Approved","OW511"
"2022-12-07 18:00",3.999,"Approved","OW511"
"2022-12-07 19:00",3.989,"Approved","OW511"
"2022-12-07 20:00",3.976,"Approved","OW511"
"2022-12-07 21:00",3.969,"Approved","OW511"
"2022-12-07 22:00",3.967,"Approved","OW511"
"2022-12-07 23:00",3.956,"Approved","OW511"
"2022-12-08 00:00",3.955,"Approved","OW511"
"2022-12-08 01:00",3.951,"Approved","OW511"
"2022-12-08 02:00",3.942,"Approved","OW511"
"2022-12-08 03:00",3.936,"Approved","OW511"
"2022-12-08 04:00",3.936,"Approved","OW511"
"2022-12-08 05:00",3.939,"Approved","OW511"
"2022-12-08 06:00",3.938,"Approved","OW511"
"2022-12-08 07:00",3.945,"Approved","OW511"
"2022-12-08 08:00",3.949,"Approved","OW511"
"2022-12-08 09:00",3.95,"Approved","OW511"
"2022-12-08 10:00",3.962,"Approved","OW511"
"2022-12-08 11:00",3.969,"Approved","OW511"
"2022-12-08 12:00",3.971,"Approved","OW511"
"2022-12-08 13:00",3.975,"Approved","OW511"
"2022-12-08 14:00",3.975,"Approved","OW511"
"2022-12-08 15:00",3.968,"Approved","OW511"
"2022-12-08 16:00",3.962,"Approved","OW511"
"2022-12-08 17:00",3.949,"Approved","OW511"
"2022-12-08 18:00",3.933,"Approved","OW511"
"2022-12-08 19:00",3.924,"Approved","OW511"
"2022-12-08 20:00",3.915,"Approved","OW511"
"2022-12-08 21:00",3.905,"Approved","OW511"
"2022-12-08 22:00",3.894,"Approved","OW511"
"2022-12-08 23:00",3.884,"Approved","OW511"
"2022-12-09 00:00",3.877,"Approved","OW511"
"2022-12-09 01:00",3.873,"Approved","OW511"
"2022-12-09 02:00",3.868,"Approved","OW511"
"2022-12-09 03:00",3.858,"Approved","OW511"
"2022-12-09 04:00",3.852,"Approved","OW511"
"2022-12-09 05:00",3.855,"Approved","OW511"
"2022-12-09 06:00",3.857,"Approved","OW511"
"2022-12-09 07:00",3.863,"Approved","OW511"
"2022-12-09 08:00",3.869,"Approved","OW511"
"2022-12-09 09:00",3.875,"Approved","OW511"
"2022-12-09 10:00",3.881,"Approved","OW511"
"2022-12-09 11:00",3.887,"Approved","OW511"
"2022-12-09 12:00",3.895,"Approved","OW511"
"2022-12-09 13:00",3.905,"Approved","OW511"
"2022-12-09 14:00",3.905,"Approved","OW511"
"2022-12-09 15:00",3.907,"Approved","OW511"
"2022-12-09 16:00",3.901,"Approved","OW511"
"2022-12-09 17:00",3.893,"Approved","OW511"
"2022-12-09 18:00",3.882,"Approved","OW511"
"2022-12-09 19:00",3.869,"Approved","OW511"
"2022-12-09 20:00",3.858,"Approved","OW511"
"2022-12-09 21:00",3.845,"Approved","OW511"
"2022-12-09 22:00",3.844,"Approved","OW511"
"2022-12-09 23:00",3.833,"Approved","OW511"
"2022-12-10 00:00",3.825,"Approved","OW511"
"2022-12-10 01:00",3.815,"Approved","OW511"
"2022-12-10 02:00",3.813,"Approved","OW511"
"2022-12-10 03:00",3.808,"Approved","OW511"
"2022-12-10 04:00",3.801,"Approved","OW511"
"2022-12-10 05:00",3.802,"Approved","OW511"
"2022-12-10 06:00",3.802,"Approved","OW511"
"2022-12-10 07:00",3.803,"Approved","OW511"
"2022-12-10 08:00",3.809,"Approved","OW511"
"2022-12-10 09:00",3.813,"Approved","OW511"
"2022-12-10 10:00",3.82,"Approved","OW511"
"2022-12-10 11:00",3.823,"Approved","OW511"
"2022-12-10 12:00",3.831,"Approved","OW511"
"2022-12-10 13:00",3.836,"Approved","OW511"
"2022-12-10 14:00",3.841,"Approved","OW511"
"2022-12-10 15:00",3.837,"Approved","OW511"
"2022-12-10 16:00",3.826,"Approved","OW511"
"2022-12-10 17:00",3.812,"Approved","OW511"
"2022-12-10 18:00",3.798,"Approved","OW511"
"2022-12-10 19:00",3.791,"Approved","OW511"
"2022-12-10 20:00",3.776,"Approved","OW511"
"2022-12-10 21:00",3.767,"Approved","OW511"
"2022-12-10 22:00",3.753,"Approved","OW511"
"2022-12-10 23:00",3.744,"Approved","OW511"
"2022-12-11 00:00",3.733,"Approved","OW511"
"2022-12-11 01:00",3.724,"Approved","OW511"
"2022-12-11 02:00",3.716,"Approved","OW511"
"2022-12-11 03:00",3.712,"Approved","OW511"
"2022-12-11 04:00",3.703,"Approved","OW511"
"2022-12-11 05:00",3.697,"Approved","OW511"
"2022-12-11 06:00",3.692,"Approved","OW511"
"2022-12-11 07:00",3.697,"Approved","OW511"
"2022-12-11 08:00",3.696,"Approved","OW511"
"2022-12-11 09:00",3.698,"Approved","OW511"
"2022-12-11 10:00",3.702,"Approved","OW511"
"2022-12-11 11:00",3.712,"Approved","OW511"
"2022-12-11 12:00",3.716,"Approved","OW511"
"2022-12-11 13:00",3.722,"Approved","OW511"
"2022-12-11 14:00",3.728,"Approved","OW511"
"2022-12-11 15:00",3.731,"Approved","OW511"
"2022-12-11 16:00",3.728,"Approved","OW511"
"2022-12-11 17:00",3.725,"Approved","OW511"
"2022-12-11 18:00",3.719,"Approved","OW511"
"2022-12-11 19:00",3.704,"Approved","OW511"
"2022-12-11 20:00",3.692,"Approved","OW511"
"2022-12-11 21:00",3.683,"Approved","OW511"
"2022-12-11 22:00",3.682,"Approved","OW511"
"2022-12-11 23:00",3.666,"Approved","OW511"
"2022-12-12 00:00",3.662,"Approved","OW511"
"2022-12-12 01:00",3.658,"Approved","OW511"
"2022-12-12 02:00",3.654,"Approved","OW511"
"2022-12-12 03:00",3.65,"Approved","OW511"
"2022-12-12 04:00",3.643,"Approved","OW511"
"2022-12-12 05:00",3.648,"Approved","OW511"
"2022-12-12 06:00",3.65,"Approved","OW511"
"2022-12-12 07:00",3.659,"Approved","OW511"
"2022-12-12 08:00",3.666,"Approved","OW511"
"2022-12-12 09:00",3.675,"Approved","OW511"
"2022-12-12 10:00",3.683,"Approved","OW511"
"2022-12-12 11:00",3.69,"Approved","OW511"
"2022-12-12 12:00",3.698,"Approved","OW511"
"2022-12-12 13:00",3.706,"Approved","OW511"
"2022-12-12 14:00",3.717,"Approved","OW511"
"2022-12-12 15:00",3.721,"Approved","OW511"
"2022-12-12 16:00",3.731,"Approved","OW511"
"2022-12-12 17:00",3.733,"Approved","OW511"
"2022-12-12 18:00",3.732,"Approved","OW511"
"2022-12-12 19:00",3.728,"Approved","OW511"
"2022-12-12 20:00",3.719,"Approved","OW511"
"2022-12-12 21:00",3.713,"Approved","OW511"
"2022-12-12 22:00",3.704,"Approved","OW511"
"2022-12-12 23:00",3.695,"Approved","OW511"
"2022-12-13 00:00",3.698,"Approved","OW511"
"2022-12-13 01:00",3.693,"Approved","OW511"
"2022-12-13 02:00",3.693,"Approved","OW511"
"2022-12-13 03:00",3.694,"Approved","OW511"
"2022-12-13 04:00",3.696,"Approved","OW511"
"2022-12-13 05:00",3.699,"Approved","OW511"
"2022-12-13 06:00",3.705,"Approved","OW511"
"2022-12-13 07:00",3.714,"Approved","OW511"
"2022-12-13 08:00",3.724,"Approved","OW511"
"2022-12-13 09:00",3.733,"Approved","OW511"
"2022-12-13 10:00",3.744,"Approved","OW511"
"2022-12-13 11:00",3.748,"Approved","OW511"
"2022-12-13 12:00",3.75,"Approved","OW511"
"2022-12-13 13:00",3.765,"Approved","OW511"
"2022-12-13 14:00",3.774,"Approved","OW511"
"2022-12-13 15:00",3.782,"Approved","OW511"
"2022-12-13 16:00",3.791,"Approved","OW511"
"2022-12-13 17:00",3.795,"Approved","OW511"
"2022-12-13 18:00",3.796,"Approved","OW511"
"2022-12-13 19:00",3.796,"Approved","OW511"
"2022-12-13 20:00",3.791,"Approved","OW511"
"2022-12-13 21:00",3.784,"Approved","OW511"
"2022-12-13 22:00",3.776,"Approved","OW511"
"2022-12-13 23:00",3.77,"Approved","OW511"
"2022-12-14 00:00",3.77,"Approved","OW511"
"2022-12-14 01:00",3.772,"Approved","OW511"
"2022-12-14 02:00",3.768,"Approved","OW511"
"2022-12-14 03:00",3.772,"Approved","OW511"
"2022-12-14 04:00",3.778,"Approved","OW511"
"2022-12-14 05:00",3.785,"Approved","OW511"
"2022-12-14 06:00",3.786,"Approved","OW511"
"2022-12-14 07:00",3.791,"Approved","OW511"
"2022-12-14 08:00",3.798,"Approved","OW511"
"2022-12-14 09:00",3.809,"Approved","OW511"
"2022-12-14 10:00",3.814,"Approved","OW511"
"2022-12-14 11:00",3.821,"Approved","OW511"
"2022-12-14 12:00",3.829,"Approved","OW511"
"2022-12-14 13:00",3.836,"Approved","OW511"
"2022-12-14 14:00",3.844,"Approved","OW511"
"2022-12-14 15:00",3.853,"Approved","OW511"
"2022-12-14 16:00",3.86,"Approved","OW511"
"2022-12-14 17:00",3.864,"Approved","OW511"
"2022-12-14 18:00",3.867,"Approved","OW511"
"2022-12-14 19:00",3.868,"Approved","OW511"
"2022-12-14 20:00",3.871,"Approved","OW511"
"2022-12-14 21:00",3.869,"Approved","OW511"
"2022-12-14 22:00",3.864,"Approved","OW511"
"2022-12-14 23:00",3.856,"Approved","OW511"
"2022-12-15 00:00",3.855,"Approved","OW511"
"2022-12-15 01:00",3.854,"Approved","OW511"
"2022-12-15 02:00",3.86,"Approved","OW511"
"2022-12-15 03:00",3.863,"Approved","OW511"
"2022-12-15 04:00",3.867,"Approved","OW511"
"2022-12-15 05:00",3.872,"Approved","OW511"
"2022-12-15 06:00",3.878,"Approved","OW511"
"2022-12-15 07:00",3.879,"Approved","OW511"
"2022-12-15 08:00",3.888,"Approved","OW511"
"2022-12-15 09:00",3.889,"Approved","OW511"
"2022-12-15 10:00",3.9,"Approved","OW511"
"2022-12-15 11:00",3.907,"Approved","OW511"
"2022-12-15 12:00",3.915,"Approved","OW511"
"2022-12-15 13:00",3.922,"Approved","OW511"
"2022-12-15 14:00",3.929,"Approved","OW511"
"2022-12-15 15:00",3.941,"Approved","OW511"
"2022-12-15 16:00",3.945,"Approved","OW511"
"2022-12-15 17:00",3.956,"Approved","OW511"
"2022-12-15 18:00",3.958,"Approved","OW511"
"2022-12-15 19:00",3.962,"Approved","OW511"
"2022-12-15 20:00",3.963,"Approved","OW511"
"2022-12-15 21:00",3.959,"Approved","OW511"
"2022-12-15 22:00",3.959,"Approved","OW511"
"2022-12-15 23:00",3.954,"Approved","OW511"
"2022-12-16 00:00",3.953,"Approved","OW511"
"2022-12-16 01:00",3.952,"Approved","OW511"
"2022-12-16 02:00",3.953,"Approved","OW511"
"2022-12-16 03:00",3.957,"Approved","OW511"
"2022-12-16 04:00",3.966,"Approved","OW511"
"2022-12-16 05:00",3.969,"Approved","OW511"
"2022-12-16 06:00",3.977,"Approved","OW511"
"2022-12-16 07:00",3.977,"Approved","OW511"
"2022-12-16 08:00",3.982,"Approved","OW511"
"2022-12-16 09:00",3.989,"Approved","OW511"
"2022-12-16 10:00",3.995,"Approved","OW511"
"2022-12-16 11:00",4.004,"Approved","OW511"
"2022-12-16 12:00",4.009,"Approved","OW511"
"2022-12-16 13:00",4.015,"Approved","OW511"
"2022-12-16 14:00",4.021,"Approved","OW511"
"2022-12-16 15:00",4.025,"Approved","OW511"
"2022-12-16 16:00",4.034,"Approved","OW511"
"2022-12-16 17:00",4.042,"Approved","OW511"
"2022-12-16 18:00",4.048,"Approved","OW511"
"2022-12-16 19:00",4.051,"Approved","OW511"
"2022-12-16 20:00",4.052,"Approved","OW511"
"2022-12-16 21:00",4.045,"Approved","OW511"
"2022-12-16 22:00",4.048,"Approved","OW511"
"2022-12-16 23:00",4.043,"Approved","OW511"
"2022-12-17 00:00",4.04,"Approved","OW511"
"2022-12-17 01:00",4.039,"Approved","OW511"
"2022-12-17 02:00",4.038,"Approved","OW511"
"2022-12-17 03:00",4.038,"Approved","OW511"
"2022-12-17 04:00",4.047,"Approved","OW511"
"2022-12-17 05:00",4.05,"Approved","OW511"
"2022-12-17 06:00",4.054,"Approved","OW511"
"2022-12-17 07:00",4.059,"Approved","OW511"
"2022-12-17 08:00",4.063,"Approved","OW511"
"2022-12-17 09:00",4.069,"Approved","OW511"
"2022-12-17 10:00",4.068,"Approved","OW511"
"2022-12-17 11:00",4.076,"Approved","OW511"
"2022-12-17 12:00",4.082,"Approved","OW511"
"2022-12-17 13:00",4.086,"Approved","OW511"
"2022-12-17 14:00",4.09,"Approved","OW511"
"2022-12-17 15:00",4.097,"Approved","OW511"
"2022-12-17 16:00",4.098,"Approved","OW511"
"2022-12-17 17:00",4.106,"Approved","OW511"
"2022-12-17 18:00",4.108,"Approved","OW511"
"2022-12-17 19:00",4.112,"Approved","OW511"
"2022-12-17 20:00",4.111,"Approved","OW511"
"2022-12-17 21:00",4.105,"Approved","OW511"
"2022-12-17 22:00",4.099,"Approved","OW511"
"2022-12-17 23:00",4.093,"Approved","OW511"
"2022-12-18 00:00",4.087,"Approved","OW511"
"2022-12-18 01:00",4.082,"Approved","OW511"
"2022-12-18 02:00",4.083,"Approved","OW511"
"2022-12-18 03:00",4.077,"Approved","OW511"
"2022-12-18 04:00",4.082,"Approved","OW511"
"2022-12-18 05:00",4.083,"Approved","OW511"
"2022-12-18 06:00",4.09,"Approved","OW511"
"2022-12-18 07:00",4.098,"Approved","OW511"
"2022-12-18 08:00",4.098,"Approved","OW511"
"2022-12-18 09:00",4.104,"Approved","OW511"
"2022-12-18 10:00",4.109,"Approved","OW511"
"2022-12-18 11:00",4.111,"Approved","OW511"
"2022-12-18 12:00",4.114,"Approved","OW511"
"2022-12-18 13:00",4.12,"Approved","OW511"
"2022-12-18 14:00",4.122,"Approved","OW511"
"2022-12-18 15:00",4.121,"Approved","OW511"
"2022-12-18 16:00",4.127,"Approved","OW511"
"2022-12-18 17:00",4.129,"Approved","OW511"
"2022-12-18 18:00",4.126,"Approved","OW511"
"2022-12-18 19:00",4.129,"Approved","OW511"
"2022-12-18 20:00",4.125,"Approved","OW511"
"2022-12-18 21:00",4.121,"Approved","OW511"
"2022-12-18 22:00",4.116,"Approved","OW511"
"2022-12-18 23:00",4.104,"Approved","OW511"
"2022-12-19 00:00",4.096,"Approved","OW511"
"2022-12-19 01:00",4.092,"Approved","OW511"
"2022-12-19 02:00",4.082,"Approved","OW511"
"2022-12-19 03:00",4.084,"Approved","OW511"
"2022-12-19 04:00",4.086,"Approved","OW511"
"2022-12-19 05:00",4.087,"Approved","OW511"
"2022-12-19 06:00",4.093,"Approved","OW511"
"2022-12-19 07:00",4.102,"Approved","OW511"
"2022-12-19 08:00",4.105,"Approved","OW511"
"2022-12-19 09:00",4.109,"Approved","OW511"
"2022-12-19 10:00",4.113,"Approved","OW511"
"2022-12-19 11:00",4.117,"Approved","OW511"
"2022-12-19 12:00",4.122,"Approved","OW511"
"2022-12-19 13:00",4.122,"Approved","OW511"
"2022-12-19 14:00",4.123,"Approved","OW511"
"2022-12-19 15:00",4.127,"Approved","OW511"
"2022-12-19 16:00",4.129,"Approved","OW511"
"2022-12-19 17:00",4.131,"Approved","OW511"
"2022-12-19 18:00",4.129,"Approved","OW511"
"2022-12-19 19:00",4.13,"Approved","OW511"
"2022-12-19 20:00",4.133,"Approved","OW511"
"2022-12-19 21:00",4.126,"Approved","OW511"
"2022-12-19 22:00",4.12,"Approved","OW511"
"2022-12-19 23:00",4.111,"Approved","OW511"
"2022-12-20 00:00",4.109,"Approved","OW511"
"2022-12-20 01:00",4.101,"Approved","OW511"
"2022-12-20 02:00",4.099,"Approved","OW511"
"2022-12-20 03:00",4.099,"Approved","OW511"
"2022-12-20 04:00",4.098,"Approved","OW511"
"2022-12-20 05:00",4.102,"Approved","OW511"
"2022-12-20 06:00",4.111,"Approved","OW511"
"2022-12-20 07:00",4.114,"Approved","OW511"
"2022-12-20 08:00",4.122,"Approved","OW511"
"2022-12-20 09:00",4.129,"Approved","OW511"
"2022-12-20 10:00",4.136,"Approved","OW511"
"2022-12-20 11:00",4.138,"Approved","OW511"
"2022-12-20 12:00",4.139,"Approved","OW511"
"2022-12-20 13:00",4.137,"Approved","OW511"
"2022-12-20 14:00",4.133,"Approved","OW511"
"2022-12-20 15:00",4.13,"Approved","OW511"
"2022-12-20 16:00",4.129,"Approved","OW511"
"2022-12-20 17:00",4.127,"Approved","OW511"
"2022-12-20 18:00",4.122,"Approved","OW511"
"2022-12-20 19:00",4.116,"Approved","OW511"
"2022-12-20 20:00",4.117,"Approved","OW511"
"2022-12-20 21:00",4.112,"Approved","OW511"
"2022-12-20 22:00",4.102,"Approved","OW511"
"2022-12-20 23:00",4.099,"Approved","OW511"
"2022-12-21 00:00",4.091,"Approved","OW511"
"2022-12-21 01:00",4.084,"Approved","OW511"
"2022-12-21 02:00",4.08,"Approved","OW511"
"2022-12-21 03:00",4.073,"Approved","OW511"
"2022-12-21 04:00",4.067,"Approved","OW511"
"2022-12-21 05:00",4.074,"Approved","OW511"
"2022-12-21 06:00",4.074,"Approved","OW511"
"2022-12-21 07:00",4.078,"Approved","OW511"
"2022-12-21 08:00",4.085,"Approved","OW511"
"2022-12-21 09:00",4.088,"Approved","OW511"
"2022-12-21 10:00",4.095,"Approved","OW511"
"2022-12-21 11:00",4.104,"Approved","OW511"
"2022-12-21 12:00",4.106,"Approved","OW511"
"2022-12-21 13:00",4.108,"Approved","OW511"
"2022-12-21 14:00",4.103,"Approved","OW511"
"2022-12-21 15:00",4.101,"Approved","OW511"
"2022-12-21 16:00",4.092,"Approved","OW511"
"2022-12-21 17:00",4.089,"Approved","OW511"
"2022-12-21 18:00",4.083,"Approved","OW511"
"2022-12-21 19:00",4.083,"Approved","OW511"
"2022-12-21 20:00",4.077,"Approved","OW511"
"2022-12-21 21:00",4.071,"Approved","OW511"
"2022-12-21 22:00",4.067,"Approved","OW511"
"2022-12-21 23:00",4.063,"Approved","OW511"
"2022-12-22 00:00",4.058,"Approved","OW511"
"2022-12-22 01:00",4.052,"Approved","OW511"
"2022-12-22 02:00",4.053,"Approved","OW511"
"2022-12-22 03:00",4.049,"Approved","OW511"
"2022-12-22 04:00",4.046,"Approved","OW511"
"2022-12-22 05:00",4.046,"Approved","OW511"
"2022-12-22 06:00",4.054,"Approved","OW511"
"2022-12-22 07:00",4.061,"Approved","OW511"
"2022-12-22 08:00",4.068,"Approved","OW511"
"2022-12-22 09:00",4.073,"Approved","OW511"
"2022-12-22 10:00",4.076,"Approved","OW511"
"2022-12-22 11:00",4.087,"Approved","OW511"
"2022-12-22 12:00",4.088,"Approved","OW511"
"2022-12-22 13:00",4.094,"Approved","OW511"
"2022-12-22 14:00",4.089,"Approved","OW511"
"2022-12-22 15:00",4.086,"Approved","OW511"
"2022-12-22 16:00",4.081,"Approved","OW511"
"2022-12-22 17:00",4.07,"Approved","OW511"
"2022-12-22 18:00",4.062,"Approved","OW511"
"2022-12-22 19:00",4.055,"Approved","OW511"
"2022-12-22 20:00",4.052,"Approved","OW511"
"2022-12-22 21:00",4.044,"Approved","OW511"
"2022-12-22 22:00",4.042,"Approved","OW511"
"2022-12-22 23:00",4.031,"Approved","OW511"
"2022-12-23 00:00",4.025,"Approved","OW511"
"2022-12-23 01:00",4.019,"Approved","OW511"
"2022-12-23 02:00",4.007,"Approved","OW511"
"2022-12-23 03:00",4.003,"Approved","OW511"